Location: Austin, TX
(30.3000°N, 97.7500°W)
Time: 07:59:02
(UTC-05:00)

Daily predictions for brighter satellites

Satellite Brightness Start Highest point End
(mag) Time Altitude Azimuth Time Altitude Azimuth Time Altitude Azimuth
H-2A R/B 4.0 20:49:30 10° E 20:51:45 14° ENE 20:54:01 10° NE
Hubble Space Telescope 2.0 20:48:16 10° W 20:51:55 30° SSW 20:55:34 10° SE
CZ-4B DEB 3.4 20:51:33 10° S 20:54:50 62° W 20:58:09 10° NNW
Meteor 2-15 Rocket 4.4 20:49:14 10° S 20:55:18 81° E 21:01:22 10° N
Cosmos 1812 4.2 20:52:48 10° SSW 20:56:28 42° W 21:00:09 10° N
ATLAS CENTAUR R/B 2.7 20:53:41 10° SW 20:58:26 55° WNW 21:03:24 10° NNE
SL-24 R/B - RUBIN 2 4.2 20:54:47 10° SSW 20:59:53 87° WNW 21:05:44 10° NNE
Cosmos 2237 Rocket 3.1 20:56:21 10° SW 21:01:50 55° WNW 21:07:21 10° N
Resurs 01 Rocket 3.4 20:58:53 10° SSW 21:02:54 33° W 21:06:55 10° NNW
ATLAS 3B CENTAUR R/B 3.6 21:00:03 10° WSW 21:03:06 21° S 21:08:46 10° SE
RESURS DK-1 3.7 21:00:02 10° NW 21:03:53 39° WSW 21:07:44 10° S
Chandra Rocket (1) 4.5 20:59:07 10° W 21:05:31 82° S 21:35:53 10° E
Atlas Centaur 2 3.2 21:00:19 10° SW 21:07:12 49° SSE 21:15:11 10° E
GEOS 3 Rocket 4.0 21:03:03 10° SE 21:08:08 51° NE 21:13:13 10° NNW
Tiangong 1 3.6 21:08:46 10° W 21:10:38 15° SW 21:12:30 10° S
Cosmos 1315 Rocket 4.4 21:07:43 10° NNW 21:11:30 37° W 21:15:13 10° SSW
Cosmos 2278 Rocket 2.2 21:09:46 10° NNW 21:15:27 72° ENE 21:21:04 10° SSE
Cosmos 1025 Rocket 3.1 21:11:36 10° S 21:16:00 88° WNW 21:20:23 10° N
Cosmos 494 Rocket 4.0 21:11:06 10° S 21:16:07 59° ESE 21:21:08 10° NNE
PSLV R/B 3.3 21:13:03 10° WSW 21:16:34 86° SSE 21:20:08 10° ENE
CZ-2D R/B 3.3 21:13:16 10° S 21:17:10 84° W 21:21:04 10° NNW
Aureole 2 Rocket 3.4 21:14:02 10° SSE 21:17:49 35° ESE 21:21:19 10° NE
USA 186 1.4 21:15:37 10° SSE 21:18:38 82° ENE 21:21:29 10° N
COSMOS 2455 4.0 21:14:22 10° SSE 21:18:39 21° ESE 21:22:57 10° ENE
Cosmos 1892 Rocket 3.5 21:15:52 10° S 21:20:13 67° E 21:24:39 10° NNE
ISS -1.4 21:18:23 10° S 21:19:19 14° SSE 21:19:19 14° SSE
Cosmos 1939 Rocket 4.4 21:18:34 15° ESE 21:20:42 22° ENE 21:23:53 10° NNE
CZ-4 DEB 2.7 21:18:44 10° SSE 21:21:57 90° W 21:25:11 10° NNW
Intelsat 5-2 Rocket 4.3 21:26:28 10° SSW 21:27:20 11° SSW 21:27:45 11° S
SPOT 5 4.3 21:26:56 15° E 21:28:38 19° ENE 21:31:40 10° NNE
SL-16 R/B 2.4 21:23:13 10° SSW 21:28:51 78° WNW 21:34:31 10° NNE
Lacrosse 5 rocket 4.3 21:30:04 10° W 21:32:50 19° NW 21:35:41 10° N
Cosmos 1666 4.0 21:30:37 10° NNE 21:33:50 24° E 21:34:49 22° ESE
Meteor 2-17 Rocket 4.4 21:28:00 10° N 21:34:10 83° E 21:40:19 10° S
Nimbus 7 Rocket 4.5 21:29:11 10° NNE 21:35:00 55° ESE 21:40:43 10° S
Cosmos 1500 3.9 21:31:19 10° NNW 21:35:07 54° W 21:38:54 10° S
OTV 4 1.1 21:36:15 10° WNW 21:39:06 43° SSW 21:40:00 32° SSE
Meteor 1-23 Rocket 4.2 21:38:03 10° S 21:43:40 88° W 21:49:23 10° N
Cosmos 1331 Rocket 4.1 21:39:12 10° N 21:44:21 59° ENE 21:47:14 25° SE
Cosmos 1743 2.8 21:41:38 10° N 21:45:28 76° W 21:48:15 18° S
Okean 2 3.5 21:44:50 10° S 21:49:00 78° W 21:53:11 10° N
ALOS 3.3 21:45:40 10° S 21:50:05 43° W 21:54:32 10° NNW
Cosmos 1726 Rocket 3.7 21:46:29 10° N 21:50:55 76° W 21:54:12 18° S
SeaSat 1 3.4 21:50:09 25° ESE 21:52:06 33° ENE 21:56:30 10° N
Star 37D S/N 012 4.1 21:51:03 10° W 21:53:38 69° SSW 21:53:38 69° SSW
Cosmos 2285 Rocket 4.0 21:48:15 10° N 21:54:32 64° ENE 21:58:06 27° SSE
Cosmos 1603 3.6 21:52:07 10° S 21:57:41 66° ESE 22:03:14 10° NNE
CZ-4B R/B 3.8 21:57:04 10° NNE 22:01:57 45° E 22:03:35 34° SE
Cosmos 2058 Rocket 3.1 21:57:44 10° N 22:02:06 75° W 22:04:29 26° S
Cosmos 1602 Rocket 3.5 22:01:25 29° S 22:03:37 72° E 22:08:06 10° N
UNK 4.2 21:58:49 10° NNE 22:04:15 63° ESE 22:08:12 20° S
APEX 4.2 22:01:58 10° N 22:06:12 47° ENE 22:07:37 37° ESE
CZ-2C R/B 2.7 22:06:25 20° WSW 22:06:44 20° W 22:08:33 10° NW
Cosmos 1464 Rocket 3.9 22:01:12 10° N 22:07:22 89° W 22:11:28 23° S
Meteor 2-9 Rocket 4.2 22:02:59 10° N 22:08:44 84° E 22:11:49 29° S
PSLV R/B 3.8 22:09:29 44° NE 22:09:29 44° NE 22:11:56 10° N
Delta 168 3.4 22:06:51 10° WSW 22:10:30 42° S 22:10:31 42° S
Cosmos 1461 4.2 22:07:24 10° N 22:10:53 25° NE 22:11:08 24° ENE
Cosmos 2297 4.0 22:12:34 10° NNW 22:18:12 63° WSW 22:21:02 30° S
ATLAS 3B R/B 3.3 22:16:53 32° SSE 22:19:21 41° ESE 22:26:22 10° NE
Cosmos 1812 Rocket 4.0 22:15:53 10° N 22:19:55 43° ENE 22:19:55 43° ENE
ERS-1 Rocket 4.0 22:16:56 17° SSW 22:20:22 42° W 22:25:07 10° NNW
Envisat 2.9 22:19:51 42° S 22:21:38 88° WSW 22:26:44 10° NNW
Cosmos 1943 3.6 22:23:34 41° E 22:23:34 41° E 22:28:35 10° NE
YAOGAN 6 3.8 22:24:55 32° NE 22:24:55 32° NE 22:27:30 10° N
Cosmos 2034 Rocket 4.0 22:18:57 10° N 22:25:20 86° W 22:28:23 33° S
H-2A R/B 3.3 22:25:28 23° SSW 22:27:23 35° W 22:31:19 10° NNW
Centaur D AC-29 4.0 22:23:06 10° W 22:32:37 18° WSW 22:35:57 13° SSW
USA 234 3.9 22:30:35 31° E 22:33:09 45° NE 22:39:20 10° NNW
Abrixas rocket 4.0 22:34:16 10° NNW 22:36:37 28° N 22:36:37 28° N
MetOp-A 4.0 22:37:41 60° SSE 22:38:43 88° ENE 22:44:06 10° NNW
Atlas Centaur 2 2.9 22:48:57 10° WSW 22:56:55 84° S 23:00:56 36° E
H-2A R/B 3.3 22:59:58 29° NE 22:59:58 29° NE 23:03:14 10° N
Meteor 2-12 Rocket 4.3 22:52:47 10° N 22:58:54 86° W 22:59:40 70° S
Cosmos 2346 Rocket 4.4 23:01:24 67° S 23:02:19 87° W 23:08:31 10° N
COSMOS 2455 3.8 22:58:26 10° SW 23:04:09 46° WNW 23:09:55 10° N
CZ-4 R/B 4.4 23:01:03 10° N 23:05:56 56° WNW 23:06:34 52° WSW
SPOT 5 4.2 23:06:11 28° WSW 23:06:29 28° W 23:10:17 10° NW
Cosmos 1992 Rocket 4.5 23:01:38 10° N 23:05:55 51° NNE 23:05:55 51° NNE
SPOT 1/Viking Rocket 3.7 23:07:22 68° W 23:07:22 68° W 23:12:24 10° NNW
Milstar 3 Cent rocket 3.6 23:04:57 10° W 23:08:19 24° SW 23:08:19 24° SW
ARGOS 3.1 23:10:54 80° NW 23:10:54 80° NW 23:16:05 10° NNW
Cosmos 2369 Rocket 3.0 23:08:33 10° N 23:13:08 40° NE 23:13:08 40° NE
Cosmos 1190 Rocket 4.3 23:17:39 65° NW 23:17:39 65° NW 23:22:27 10° N
NOAA 11 4.3 23:19:15 71° NW 23:19:15 71° NW 23:24:12 10° NNW
Lacrosse 4 Rocket 3.9 23:31:19 16° NNE 23:31:19 16° NNE 23:32:16 10° NNE
SeaSat 1 4.2 23:29:57 23° W 23:29:57 23° W 23:33:30 10° NW
Terra 3.1 23:35:13 36° N 23:35:13 36° N 23:38:03 10° N
